Time,TemperatureF,DewpointF,PressureIn,WindDirection,WindDirectionDegrees,WindSpeedMPH,WindSpeedGustMPH,Humidity,HourlyPrecipIn,Conditions,Clouds,dailyrainin,SoftwareType,DateUTC
2013-05-05 00:01:00,43.9,47.7,30.01,SSE,151,0.0,0.0,18,0.00,,,0.04,meteohub,2013-05-05 05:01:00,
2013-05-05 00:06:00,43.7,47.7,30.01,SSE,151,0.0,0.0,18,0.00,,,0.00,meteohub,2013-05-05 05:06:00,
2013-05-05 00:11:00,43.3,48.0,30.01,SSE,151,0.0,0.0,18,0.00,,,0.00,meteohub,2013-05-05 05:11:00,
2013-05-05 00:16:00,43.2,47.8,30.01,SSE,151,0.0,0.0,20,0.00,,,0.00,meteohub,2013-05-05 05:16:00,
2013-05-05 00:21:00,43.2,47.8,30.01,SSE,151,0.0,0.0,20,0.00,,,0.00,meteohub,2013-05-05 05:21:00,
2013-05-05 00:26:00,43.2,47.1,30.01,SSE,151,0.0,0.0,20,0.00,,,0.00,meteohub,2013-05-05 05:26:00,
2013-05-05 00:31:00,43.5,47.1,30.01,SSE,151,0.0,0.0,20,0.00,,,0.00,meteohub,2013-05-05 05:31:00,
2013-05-05 00:36:00,43.5,47.1,30.01,SSE,151,0.0,0.0,23,0.00,,,0.00,meteohub,2013-05-05 05:36:00,
2013-05-05 00:41:00,43.5,46.9,30.01,SSE,151,0.0,0.0,23,0.00,,,0.00,meteohub,2013-05-05 05:41:00,
2013-05-05 00:46:00,43.5,46.9,30.01,SSE,151,0.0,0.0,25,0.00,,,0.00,meteohub,2013-05-05 05:46:00,
2013-05-05 00:51:00,43.5,46.8,30.01,SSE,151,0.0,0.0,25,0.00,,,0.00,meteohub,2013-05-05 05:51:00,
2013-05-05 00:56:00,43.7,46.8,30.01,SSE,151,0.0,0.0,28,0.00,,,0.00,meteohub,2013-05-05 05:56:00,
2013-05-05 01:01:00,43.7,46.9,30.01,SSE,151,0.0,0.0,28,0.00,,,0.00,meteohub,2013-05-05 06:01:00,
2013-05-05 01:06:00,43.7,47.1,30.01,SSE,151,0.0,0.0,28,0.00,,,0.00,meteohub,2013-05-05 06:06:00,
2013-05-05 01:11:00,43.5,47.1,30.01,SSE,151,0.0,0.0,28,0.00,,,0.00,meteohub,2013-05-05 06:11:00,
2013-05-05 01:17:00,43.7,46.9,30.01,SSE,151,0.0,0.0,28,0.00,,,0.00,meteohub,2013-05-05 06:17:00,
2013-05-05 01:22:00,43.5,46.8,30.01,SSE,151,0.0,0.0,28,0.00,,,0.00,meteohub,2013-05-05 06:22:00,
2013-05-05 01:27:00,43.3,46.8,29.98,SSE,151,0.0,0.0,29,0.00,,,0.00,meteohub,2013-05-05 06:27:00,
2013-05-05 01:32:00,43.5,46.6,29.98,SSE,151,0.0,0.0,29,0.00,,,0.00,meteohub,2013-05-05 06:32:00,
2013-05-05 01:37:00,43.7,46.6,29.98,SSE,151,0.0,0.0,29,0.00,,,0.00,meteohub,2013-05-05 06:37:00,
2013-05-05 01:42:00,44.2,46.4,29.98,SSE,151,0.0,0.0,30,0.00,,,0.00,meteohub,2013-05-05 06:42:00,
2013-05-05 01:47:00,44.4,46.4,29.98,SSE,151,0.0,0.0,30,0.00,,,0.00,meteohub,2013-05-05 06:47:00,
2013-05-05 01:52:00,44.8,46.4,29.98,SSE,151,0.0,0.0,30,0.00,,,0.00,meteohub,2013-05-05 06:52:00,
2013-05-05 01:57:00,45.1,46.2,29.98,SSE,151,0.0,0.0,30,0.00,,,0.00,meteohub,2013-05-05 06:57:00,
2013-05-05 02:02:00,45.1,46.2,29.98,SSE,151,0.0,0.0,30,0.00,,,0.00,meteohub,2013-05-05 07:02:00,
2013-05-05 02:07:00,45.3,46.2,29.98,SSE,151,0.0,0.0,31,0.00,,,0.00,meteohub,2013-05-05 07:07:00,
2013-05-05 02:12:00,45.3,46.0,29.98,SSE,151,0.0,0.0,31,0.00,,,0.00,meteohub,2013-05-05 07:12:00,
2013-05-05 02:17:00,45.3,46.0,29.98,SSE,151,0.0,0.0,32,0.00,,,0.00,meteohub,2013-05-05 07:17:00,
2013-05-05 02:22:00,45.5,46.0,29.98,SSE,151,0.0,0.0,32,0.00,,,0.00,meteohub,2013-05-05 07:22:00,
2013-05-05 02:27:00,45.7,46.0,29.98,SSE,151,0.0,0.0,33,0.00,,,0.00,meteohub,2013-05-05 07:27:00,
2013-05-05 02:32:00,45.9,46.0,29.98,SSE,151,0.0,0.0,34,0.00,,,0.00,meteohub,2013-05-05 07:32:00,
2013-05-05 02:37:00,46.2,45.9,29.98,SSE,151,0.0,0.0,34,0.00,,,0.00,meteohub,2013-05-05 07:37:00,
2013-05-05 02:43:00,46.4,45.9,29.98,SSE,151,0.0,0.0,34,0.00,,,0.00,meteohub,2013-05-05 07:43:00,
2013-05-05 02:48:00,46.6,45.9,29.98,SSE,151,0.0,0.0,34,0.00,,,0.00,meteohub,2013-05-05 07:48:00,
2013-05-05 02:53:00,46.6,45.9,29.98,SSE,151,0.0,0.0,34,0.00,,,0.00,meteohub,2013-05-05 07:53:00,
2013-05-05 02:58:00,46.8,45.7,29.98,SSE,151,0.0,0.0,35,0.00,,,0.00,meteohub,2013-05-05 07:58:00,
2013-05-05 03:03:00,46.9,45.7,29.98,SSE,151,0.0,0.0,36,0.00,,,0.00,meteohub,2013-05-05 08:03:00,
2013-05-05 03:08:00,46.9,46.0,29.98,SSE,151,0.0,0.0,36,0.00,,,0.00,meteohub,2013-05-05 08:08:00,
2013-05-05 03:13:00,47.1,46.0,29.98,SSE,151,0.0,0.0,36,0.00,,,0.00,meteohub,2013-05-05 08:13:00,
2013-05-05 03:18:00,47.1,46.0,29.98,SSE,151,0.0,0.0,36,0.00,,,0.00,meteohub,2013-05-05 08:18:00,
2013-05-05 03:23:00,47.3,46.0,29.98,SSE,151,0.0,0.0,36,0.00,,,0.00,meteohub,2013-05-05 08:23:00,
2013-05-05 03:28:00,47.3,45.9,29.98,SSE,151,0.0,0.0,37,0.00,,,0.00,meteohub,2013-05-05 08:28:00,
2013-05-05 03:33:00,47.3,45.9,29.98,SSE,151,0.0,0.0,37,0.00,,,0.00,meteohub,2013-05-05 08:33:00,
2013-05-05 03:38:00,47.3,45.9,29.98,SSE,151,0.0,0.0,37,0.00,,,0.00,meteohub,2013-05-05 08:38:00,
2013-05-05 03:43:00,47.3,45.9,29.98,SSE,151,0.0,0.0,37,0.00,,,0.00,meteohub,2013-05-05 08:43:00,
2013-05-05 03:48:00,47.3,45.9,29.98,SSE,151,0.0,0.0,37,0.00,,,0.00,meteohub,2013-05-05 08:48:00,
2013-05-05 03:53:00,47.3,45.9,29.98,NNE,23,2.0,0.0,37,0.00,,,0.00,meteohub,2013-05-05 08:53:00,
2013-05-05 03:58:00,47.5,46.2,29.98,NNE,23,0.0,3.0,38,0.00,,,0.00,meteohub,2013-05-05 08:58:00,
2013-05-05 04:03:00,47.5,46.2,29.98,NNE,23,0.0,4.0,38,0.00,,,0.00,meteohub,2013-05-05 09:03:00,
2013-05-05 04:09:00,47.5,46.2,29.98,ENE,58,0.0,4.0,38,0.00,,,0.00,meteohub,2013-05-05 09:09:00,
2013-05-05 04:14:00,47.5,46.2,29.98,NNE,31,0.0,3.0,38,0.00,,,0.00,meteohub,2013-05-05 09:14:00,
2013-05-05 04:19:00,47.5,46.2,29.98,NNE,31,0.0,4.0,38,0.00,,,0.00,meteohub,2013-05-05 09:19:00,
2013-05-05 04:24:00,47.7,46.0,29.98,NNE,31,0.0,4.0,38,0.00,,,0.00,meteohub,2013-05-05 09:24:00,
2013-05-05 04:29:00,47.7,46.0,29.98,NNE,31,0.0,4.0,39,0.00,,,0.00,meteohub,2013-05-05 09:29:00,
2013-05-05 04:34:00,47.7,46.0,29.98,NNE,31,0.0,0.0,39,0.00,,,0.00,meteohub,2013-05-05 09:34:00,
2013-05-05 04:39:00,47.7,46.0,29.98,NNE,31,0.0,0.0,39,0.00,,,0.00,meteohub,2013-05-05 09:39:00,
2013-05-05 04:44:00,47.7,46.0,29.98,NNE,31,0.0,0.0,39,0.00,,,0.00,meteohub,2013-05-05 09:44:00,
2013-05-05 04:49:00,47.7,45.9,29.98,North,357,0.0,0.0,39,0.00,,,0.00,meteohub,2013-05-05 09:49:00,
2013-05-05 04:54:00,47.7,45.9,29.98,NNE,15,5.0,0.0,39,0.00,,,0.00,meteohub,2013-05-05 09:54:00,
2013-05-05 04:59:00,47.5,45.9,29.98,North,0,0.0,4.0,40,0.00,,,0.00,meteohub,2013-05-05 09:59:00,
2013-05-05 05:04:00,47.5,45.9,29.98,North,0,0.0,5.0,40,0.00,,,0.00,meteohub,2013-05-05 10:04:00,
2013-05-05 05:09:00,47.3,45.9,29.98,North,0,0.0,5.0,40,0.00,,,0.00,meteohub,2013-05-05 10:09:00,
2013-05-05 05:14:00,47.3,45.7,29.98,NNW,344,3.0,5.0,40,0.00,,,0.00,meteohub,2013-05-05 10:14:00,
2013-05-05 05:19:00,47.3,45.7,29.98,NNW,327,0.0,5.0,41,0.00,,,0.00,meteohub,2013-05-05 10:19:00,
2013-05-05 05:24:00,47.3,45.7,29.98,NW,308,0.0,5.0,41,0.00,,,0.00,meteohub,2013-05-05 10:24:00,
2013-05-05 05:29:00,47.3,45.7,29.98,NW,320,0.0,5.0,41,0.00,,,0.00,meteohub,2013-05-05 10:29:00,
2013-05-05 05:35:00,47.5,45.7,29.98,NNW,329,0.0,4.0,41,0.00,,,0.00,meteohub,2013-05-05 10:35:00,
2013-05-05 05:40:00,47.5,45.7,29.98,NNW,345,0.0,0.0,41,0.00,,,0.00,meteohub,2013-05-05 10:40:00,
2013-05-05 05:45:00,47.7,45.7,29.98,North,0,0.0,4.0,41,0.00,,,0.00,meteohub,2013-05-05 10:45:00,
2013-05-05 05:50:00,47.7,45.7,29.98,NNW,328,0.0,5.0,41,0.00,,,0.00,meteohub,2013-05-05 10:50:00,
2013-05-05 05:55:00,47.7,45.7,29.98,NNW,338,0.0,5.0,41,0.00,,,0.00,meteohub,2013-05-05 10:55:00,
2013-05-05 06:00:00,47.8,45.7,29.98,WNW,293,0.0,3.0,41,0.00,,,0.00,meteohub,2013-05-05 11:00:00,
2013-05-05 06:05:00,47.8,45.5,29.98,North,353,3.0,0.0,41,0.00,,,0.00,meteohub,2013-05-05 11:05:00,
2013-05-05 06:10:00,47.8,45.5,29.98,NNW,337,0.0,4.0,42,0.00,,,0.00,meteohub,2013-05-05 11:10:00,
2013-05-05 06:15:00,47.8,45.5,29.98,NW,322,4.0,4.0,42,0.00,,,0.00,meteohub,2013-05-05 11:15:00,
2013-05-05 06:20:00,48.0,45.5,29.98,West,271,0.0,5.0,42,0.00,,,0.00,meteohub,2013-05-05 11:20:00,
2013-05-05 06:25:00,48.0,46.0,29.98,North,5,2.0,5.0,42,0.00,,,0.00,meteohub,2013-05-05 11:25:00,
2013-05-05 06:30:00,48.0,45.3,29.98,North,0,4.0,5.0,42,0.00,,,0.00,meteohub,2013-05-05 11:30:00,
2013-05-05 06:35:00,48.0,45.3,29.98,NW,322,3.0,4.0,42,0.00,,,0.00,meteohub,2013-05-05 11:35:00,
2013-05-05 06:40:00,48.0,45.3,29.98,NNW,330,3.0,4.0,42,0.00,,,0.00,meteohub,2013-05-05 11:40:00,
2013-05-05 06:45:00,48.0,45.9,29.98,North,7,3.0,5.0,42,0.00,,,0.00,meteohub,2013-05-05 11:45:00,
2013-05-05 06:50:00,48.0,45.3,29.98,NNE,16,3.0,5.0,42,0.00,,,0.00,meteohub,2013-05-05 11:50:00,
2013-05-05 06:55:00,48.0,45.9,29.98,WNW,300,3.0,6.0,42,0.00,,,0.00,meteohub,2013-05-05 11:55:00,
2013-05-05 07:01:00,48.0,45.7,29.98,NW,308,4.0,6.0,42,0.00,,,0.00,meteohub,2013-05-05 12:01:00,
2013-05-05 07:06:00,48.0,45.7,29.98,North,353,0.0,5.0,42,0.00,,,0.00,meteohub,2013-05-05 12:06:00,
2013-05-05 07:11:00,48.0,45.7,29.98,NNW,340,0.0,5.0,42,0.00,,,0.00,meteohub,2013-05-05 12:11:00,
2013-05-05 07:16:00,48.2,45.7,29.98,NNW,334,0.0,5.0,42,0.00,,,0.00,meteohub,2013-05-05 12:16:00,
2013-05-05 07:21:00,48.2,45.5,29.98,North,353,5.0,5.0,42,0.00,,,0.00,meteohub,2013-05-05 12:21:00,
2013-05-05 07:26:00,48.2,45.5,29.98,NW,316,0.0,6.0,42,0.00,,,0.00,meteohub,2013-05-05 12:26:00,
2013-05-05 07:31:00,48.4,45.5,29.98,NW,325,4.0,6.0,43,0.00,,,0.00,meteohub,2013-05-05 12:31:00,
2013-05-05 07:36:00,48.4,45.5,29.98,NNW,334,5.0,6.0,43,0.00,,,0.00,meteohub,2013-05-05 12:36:00,
2013-05-05 07:41:00,48.6,45.5,29.98,NNE,16,3.0,5.0,43,0.00,,,0.00,meteohub,2013-05-05 12:41:00,
2013-05-05 07:46:00,48.6,45.5,29.98,NNE,27,2.0,6.0,44,0.00,,,0.00,meteohub,2013-05-05 12:46:00,
2013-05-05 07:51:00,48.7,45.5,29.98,NNW,342,0.0,6.0,44,0.00,,,0.00,meteohub,2013-05-05 12:51:00,
2013-05-05 07:56:00,48.7,45.5,29.98,North,0,3.0,6.0,44,0.00,,,0.00,meteohub,2013-05-05 12:56:00,
2013-05-05 08:01:00,48.7,46.2,29.98,North,0,0.0,6.0,45,0.00,,,0.00,meteohub,2013-05-05 13:01:00,
2013-05-05 08:06:00,48.9,46.4,29.98,NNW,334,4.0,6.0,45,0.00,,,0.00,meteohub,2013-05-05 13:06:00,
2013-05-05 08:11:00,48.9,46.4,29.98,NNE,25,5.0,5.0,46,0.00,,,0.00,meteohub,2013-05-05 13:11:00,
2013-05-05 08:16:00,49.1,47.3,29.98,NNE,29,0.0,6.0,46,0.00,,,0.00,meteohub,2013-05-05 13:16:00,
2013-05-05 08:22:00,49.3,47.8,29.98,North,357,3.0,6.0,46,0.00,,,0.00,meteohub,2013-05-05 13:22:00,
2013-05-05 08:27:00,49.3,47.1,29.98,NW,319,4.0,5.0,46,0.00,,,0.00,meteohub,2013-05-05 13:27:00,
2013-05-05 08:32:00,49.5,46.4,29.98,NNW,331,4.0,4.0,46,0.00,,,0.00,meteohub,2013-05-05 13:32:00,
2013-05-05 08:37:00,49.5,47.1,29.98,NNW,343,3.0,4.0,47,0.00,,,0.00,meteohub,2013-05-05 13:37:00,
2013-05-05 08:42:00,49.6,46.4,29.98,North,357,0.0,4.0,47,0.00,,,0.00,meteohub,2013-05-05 13:42:00,
2013-05-05 08:47:00,49.8,46.9,29.98,WNW,289,4.0,4.0,47,0.00,,,0.00,meteohub,2013-05-05 13:47:00,
2013-05-05 08:52:00,49.8,46.6,29.98,NNE,16,4.0,5.0,47,0.04,,,0.04,meteohub,2013-05-05 13:52:00,
2013-05-05 08:57:00,50.0,46.9,29.98,North,3,0.0,7.0,47,0.04,,,0.04,meteohub,2013-05-05 13:57:00,
2013-05-05 09:02:00,50.0,46.9,29.98,North,353,4.0,7.0,47,0.04,,,0.04,meteohub,2013-05-05 14:02:00,
2013-05-05 09:07:00,50.2,46.8,29.98,North,0,3.0,7.0,48,0.04,,,0.04,meteohub,2013-05-05 14:07:00,
2013-05-05 09:12:00,50.4,46.6,29.98,North,3,3.0,5.0,48,0.04,,,0.04,meteohub,2013-05-05 14:12:00,
2013-05-05 09:17:00,50.7,46.4,29.98,North,0,4.0,5.0,49,0.04,,,0.04,meteohub,2013-05-05 14:17:00,
2013-05-05 09:22:00,50.9,46.4,29.98,North,353,3.0,5.0,49,0.04,,,0.04,meteohub,2013-05-05 14:22:00,
2013-05-05 09:27:00,51.1,46.2,29.98,NNE,31,3.0,5.0,50,0.04,,,0.04,meteohub,2013-05-05 14:27:00,
2013-05-05 09:32:00,51.3,46.2,29.98,North,353,3.0,6.0,51,0.08,,,0.08,meteohub,2013-05-05 14:32:00,
2013-05-05 09:37:00,51.4,46.2,29.98,NNE,24,3.0,6.0,51,0.08,,,0.08,meteohub,2013-05-05 14:37:00,
2013-05-05 09:42:00,51.6,47.1,29.98,NNW,341,4.0,6.0,52,0.08,,,0.08,meteohub,2013-05-05 14:42:00,
2013-05-05 09:48:00,52.0,46.6,29.98,NNE,32,6.0,6.0,53,0.08,,,0.08,meteohub,2013-05-05 14:48:00,
2013-05-05 09:53:00,52.2,46.4,29.95,North,9,3.0,6.0,54,0.04,,,0.08,meteohub,2013-05-05 14:53:00,
2013-05-05 09:58:00,52.5,46.8,29.95,North,357,4.0,6.0,55,0.04,,,0.08,meteohub,2013-05-05 14:58:00,
2013-05-05 10:03:00,52.9,47.7,29.95,NNE,28,4.0,6.0,56,0.04,,,0.08,meteohub,2013-05-05 15:03:00,
2013-05-05 10:08:00,53.1,47.8,29.95,NNW,346,4.0,6.0,58,0.04,,,0.08,meteohub,2013-05-05 15:08:00,
2013-05-05 10:13:00,53.4,46.9,29.95,NE,50,4.0,8.0,59,0.04,,,0.08,meteohub,2013-05-05 15:13:00,
2013-05-05 10:18:00,53.8,46.8,29.95,ENE,60,4.0,8.0,60,0.04,,,0.08,meteohub,2013-05-05 15:18:00,
2013-05-05 10:23:00,54.1,47.7,29.95,NE,42,6.0,6.0,61,0.04,,,0.08,meteohub,2013-05-05 15:23:00,
2013-05-05 10:28:00,54.7,47.3,29.95,NNE,21,3.0,8.0,63,0.00,,,0.08,meteohub,2013-05-05 15:28:00,
2013-05-05 10:33:00,55.0,47.3,29.95,NNW,340,6.0,8.0,64,0.00,,,0.08,meteohub,2013-05-05 15:33:00,
2013-05-05 10:38:00,55.2,47.1,29.95,North,3,3.0,8.0,65,0.00,,,0.08,meteohub,2013-05-05 15:38:00,
2013-05-05 10:43:00,55.2,47.1,29.95,North,353,4.0,9.0,66,0.00,,,0.08,meteohub,2013-05-05 15:43:00,
2013-05-05 10:48:00,55.2,47.3,29.95,NNW,343,4.0,9.0,67,0.00,,,0.08,meteohub,2013-05-05 15:48:00,
2013-05-05 10:53:00,55.4,47.1,29.95,NNW,344,5.0,7.0,67,0.00,,,0.08,meteohub,2013-05-05 15:53:00,
2013-05-05 10:58:00,55.8,47.1,29.95,NNW,338,5.0,8.0,68,0.00,,,0.08,meteohub,2013-05-05 15:58:00,
2013-05-05 11:03:00,56.1,46.9,29.95,NNW,341,5.0,8.0,69,0.00,,,0.08,meteohub,2013-05-05 16:03:00,
2013-05-05 11:08:00,56.1,47.8,29.95,North,353,6.0,8.0,68,0.00,,,0.08,meteohub,2013-05-05 16:08:00,
2013-05-05 11:14:00,56.1,47.5,29.95,NNE,16,6.0,8.0,68,0.00,,,0.08,meteohub,2013-05-05 16:14:00,
2013-05-05 11:19:00,56.1,47.3,29.95,North,357,4.0,8.0,69,0.00,,,0.08,meteohub,2013-05-05 16:19:00,
2013-05-05 11:24:00,56.5,47.3,29.95,NNE,28,4.0,8.0,69,0.00,,,0.08,meteohub,2013-05-05 16:24:00,
2013-05-05 11:29:00,56.5,47.7,29.95,North,0,3.0,8.0,68,0.00,,,0.08,meteohub,2013-05-05 16:29:00,
2013-05-05 11:34:00,56.5,47.7,29.95,NE,54,4.0,7.0,67,0.00,,,0.08,meteohub,2013-05-05 16:34:00,
2013-05-05 11:39:00,56.7,47.5,29.95,NW,322,6.0,8.0,67,0.00,,,0.08,meteohub,2013-05-05 16:39:00,
2013-05-05 11:44:00,56.8,47.5,29.95,North,0,6.0,8.0,65,0.00,,,0.08,meteohub,2013-05-05 16:44:00,
2013-05-05 11:49:00,56.7,47.5,29.95,NNE,30,6.0,8.0,62,0.00,,,0.08,meteohub,2013-05-05 16:49:00,
2013-05-05 11:54:00,56.7,47.5,29.95,NNE,15,6.0,8.0,59,0.00,,,0.08,meteohub,2013-05-05 16:54:00,
2013-05-05 11:59:00,56.8,47.5,29.95,North,1,4.0,8.0,56,0.00,,,0.08,meteohub,2013-05-05 16:59:00,
2013-05-05 12:04:00,56.8,47.5,29.95,North,2,6.0,8.0,54,0.00,,,0.08,meteohub,2013-05-05 17:04:00,
2013-05-05 12:09:00,57.0,47.7,29.95,NNE,31,4.0,8.0,54,0.00,,,0.08,meteohub,2013-05-05 17:09:00,
2013-05-05 12:14:00,56.8,47.7,29.95,North,353,5.0,8.0,51,0.00,,,0.08,meteohub,2013-05-05 17:14:00,
2013-05-05 12:19:00,56.8,47.7,29.95,NNE,27,8.0,8.0,50,0.00,,,0.08,meteohub,2013-05-05 17:19:00,
2013-05-05 12:24:00,56.8,47.7,29.95,North,3,4.0,8.0,48,0.00,,,0.08,meteohub,2013-05-05 17:24:00,
2013-05-05 12:29:00,57.0,47.7,29.95,North,353,7.0,9.0,47,0.00,,,0.08,meteohub,2013-05-05 17:29:00,
2013-05-05 12:34:00,57.2,47.7,29.95,North,7,6.0,9.0,46,0.00,,,0.08,meteohub,2013-05-05 17:34:00,
2013-05-05 12:40:00,57.4,47.8,29.92,NNE,21,3.0,8.0,46,0.00,,,0.08,meteohub,2013-05-05 17:40:00,
2013-05-05 12:45:00,57.6,47.8,29.92,North,353,6.0,8.0,46,0.00,,,0.08,meteohub,2013-05-05 17:45:00,
2013-05-05 12:50:00,57.6,47.8,29.92,North,353,6.0,10.0,45,0.00,,,0.08,meteohub,2013-05-05 17:50:00,
2013-05-05 12:55:00,57.6,47.8,29.92,NE,45,5.0,10.0,45,0.00,,,0.08,meteohub,2013-05-05 17:55:00,
2013-05-05 13:00:00,57.6,48.0,29.92,North,7,6.0,10.0,45,0.00,,,0.08,meteohub,2013-05-05 18:00:00,
2013-05-05 13:05:00,57.6,48.0,29.92,NNW,331,6.0,10.0,44,0.00,,,0.08,meteohub,2013-05-05 18:05:00,
2013-05-05 13:10:00,57.4,48.0,29.92,North,0,6.0,10.0,43,0.00,,,0.08,meteohub,2013-05-05 18:10:00,
2013-05-05 13:15:00,57.7,48.6,29.92,NNW,328,6.0,9.0,43,0.00,,,0.08,meteohub,2013-05-05 18:15:00,
2013-05-05 13:20:00,57.9,48.6,29.92,North,353,5.0,9.0,43,0.00,,,0.08,meteohub,2013-05-05 18:20:00,
2013-05-05 13:25:00,58.1,48.7,29.92,North,353,4.0,9.0,43,0.00,,,0.08,meteohub,2013-05-05 18:25:00,
2013-05-05 13:30:00,58.3,48.7,29.92,NNE,19,5.0,9.0,42,0.00,,,0.08,meteohub,2013-05-05 18:30:00,
2013-05-05 13:35:00,58.1,48.7,29.92,NNE,24,6.0,9.0,40,0.00,,,0.08,meteohub,2013-05-05 18:35:00,
2013-05-05 13:40:00,58.5,48.7,29.92,North,357,4.0,8.0,39,0.00,,,0.08,meteohub,2013-05-05 18:40:00,
2013-05-05 13:45:00,58.5,48.9,29.92,North,5,5.0,9.0,39,0.00,,,0.08,meteohub,2013-05-05 18:45:00,
2013-05-05 13:51:00,58.3,48.9,29.92,North,353,5.0,9.0,38,0.00,,,0.08,meteohub,2013-05-05 18:51:00,
2013-05-05 13:56:00,58.6,48.9,29.92,NNW,344,6.0,9.0,37,0.00,,,0.08,meteohub,2013-05-05 18:56:00,
2013-05-05 14:01:00,58.5,48.7,29.92,West,276,3.0,8.0,37,0.00,,,0.08,meteohub,2013-05-05 19:01:00,
2013-05-05 14:06:00,58.5,48.7,29.92,NW,309,4.0,8.0,36,0.00,,,0.08,meteohub,2013-05-05 19:06:00,
2013-05-05 14:11:00,58.5,48.7,29.92,North,0,4.0,8.0,36,0.00,,,0.08,meteohub,2013-05-05 19:11:00,
2013-05-05 14:16:00,58.5,48.7,29.92,NW,304,3.0,6.0,36,0.00,,,0.08,meteohub,2013-05-05 19:16:00,
2013-05-05 14:21:00,58.6,48.9,29.92,NNW,345,3.0,6.0,36,0.00,,,0.08,meteohub,2013-05-05 19:21:00,
2013-05-05 14:26:00,58.6,48.7,29.92,NW,324,4.0,6.0,36,0.00,,,0.08,meteohub,2013-05-05 19:26:00,
2013-05-05 14:31:00,59.0,48.7,29.92,North,9,4.0,6.0,36,0.00,,,0.08,meteohub,2013-05-05 19:31:00,
2013-05-05 14:36:00,59.4,48.9,29.92,WNW,290,5.0,6.0,36,0.00,,,0.08,meteohub,2013-05-05 19:36:00,
2013-05-05 14:41:00,59.7,48.4,29.92,NE,34,3.0,6.0,35,0.00,,,0.08,meteohub,2013-05-05 19:41:00,
2013-05-05 14:46:00,60.3,48.4,29.92,NW,313,4.0,6.0,36,0.00,,,0.08,meteohub,2013-05-05 19:46:00,
2013-05-05 14:51:00,60.8,48.4,29.92,NW,308,3.0,6.0,35,0.00,,,0.08,meteohub,2013-05-05 19:51:00,
2013-05-05 14:56:00,61.0,48.4,29.89,WNW,293,4.0,6.0,35,0.00,,,0.08,meteohub,2013-05-05 19:56:00,
2013-05-05 15:01:00,61.2,48.6,29.89,NNE,14,6.0,6.0,33,0.00,,,0.08,meteohub,2013-05-05 20:01:00,
2013-05-05 15:06:00,61.2,48.6,29.89,NNE,25,5.0,6.0,30,0.00,,,0.08,meteohub,2013-05-05 20:06:00,
2013-05-05 15:12:00,61.3,48.6,29.89,North,0,4.0,6.0,28,0.00,,,0.08,meteohub,2013-05-05 20:12:00,
2013-05-05 15:17:00,61.3,48.6,29.89,North,350,5.0,6.0,27,0.00,,,0.08,meteohub,2013-05-05 20:17:00,
2013-05-05 15:22:00,61.3,48.6,29.89,NW,305,4.0,6.0,27,0.00,,,0.08,meteohub,2013-05-05 20:22:00,
2013-05-05 15:27:00,61.2,48.7,29.89,NNW,339,6.0,8.0,26,0.00,,,0.08,meteohub,2013-05-05 20:27:00,
2013-05-05 15:32:00,61.3,48.7,29.89,North,1,5.0,8.0,26,0.00,,,0.08,meteohub,2013-05-05 20:32:00,
2013-05-05 15:37:00,61.5,48.7,29.89,NW,323,6.0,8.0,25,0.00,,,0.08,meteohub,2013-05-05 20:37:00,
2013-05-05 15:42:00,61.3,48.7,29.89,NE,34,6.0,9.0,24,0.00,,,0.08,meteohub,2013-05-05 20:42:00,
2013-05-05 15:47:00,61.2,48.7,29.89,NE,35,4.0,11.0,24,0.00,,,0.08,meteohub,2013-05-05 20:47:00,
2013-05-05 15:52:00,61.2,48.7,29.89,NNE,32,5.0,11.0,25,0.00,,,0.08,meteohub,2013-05-05 20:52:00,
2013-05-05 15:57:00,61.2,48.7,29.89,North,9,6.0,11.0,25,0.00,,,0.08,meteohub,2013-05-05 20:57:00,
2013-05-05 16:02:00,61.2,48.7,29.89,North,0,5.0,10.0,25,0.00,,,0.08,meteohub,2013-05-05 21:02:00,
2013-05-05 16:07:00,61.5,48.7,29.89,North,5,4.0,9.0,26,0.00,,,0.08,meteohub,2013-05-05 21:07:00,
2013-05-05 16:12:00,61.5,48.7,29.89,ENE,68,9.0,10.0,21,0.00,,,0.08,meteohub,2013-05-05 21:12:00,
2013-05-05 16:17:00,61.9,48.7,29.89,NE,54,3.0,10.0,24,0.00,,,0.08,meteohub,2013-05-05 21:17:00,
2013-05-05 16:22:00,62.2,48.9,29.89,North,10,8.0,10.0,19,0.00,,,0.08,meteohub,2013-05-05 21:22:00,
2013-05-05 16:27:00,62.2,48.9,29.89,NNE,14,5.0,10.0,16,0.00,,,0.08,meteohub,2013-05-05 21:27:00,
2013-05-05 16:32:00,62.2,48.9,29.89,North,0,6.0,10.0,14,0.00,,,0.08,meteohub,2013-05-05 21:32:00,
2013-05-05 16:38:00,62.1,48.9,29.89,NNE,26,8.0,11.0,14,0.00,,,0.08,meteohub,2013-05-05 21:38:00,
2013-05-05 16:43:00,61.9,48.9,29.89,NNE,17,6.0,11.0,14,0.00,,,0.08,meteohub,2013-05-05 21:43:00,
2013-05-05 16:48:00,61.9,48.9,29.89,NNW,337,5.0,11.0,14,0.00,,,0.08,meteohub,2013-05-05 21:48:00,
2013-05-05 16:53:00,61.9,48.9,29.89,NE,52,6.0,11.0,14,0.00,,,0.08,meteohub,2013-05-05 21:53:00,
2013-05-05 16:58:00,61.9,48.9,29.89,NNE,25,8.0,10.0,14,0.00,,,0.08,meteohub,2013-05-05 21:58:00,
2013-05-05 17:03:00,61.7,48.9,29.89,NNE,20,5.0,10.0,14,0.00,,,0.08,meteohub,2013-05-05 22:03:00,
2013-05-05 17:08:00,61.5,48.9,29.89,North,8,6.0,10.0,14,0.00,,,0.08,meteohub,2013-05-05 22:08:00,
2013-05-05 17:13:00,61.3,48.9,29.89,NNE,31,4.0,10.0,14,0.00,,,0.08,meteohub,2013-05-05 22:13:00,
2013-05-05 17:18:00,61.2,48.9,29.89,North,11,8.0,10.0,14,0.00,,,0.08,meteohub,2013-05-05 22:18:00,
2013-05-05 17:23:00,60.8,48.9,29.89,ENE,64,4.0,10.0,14,0.00,,,0.08,meteohub,2013-05-05 22:23:00,
2013-05-05 17:28:00,60.6,48.9,29.89,NE,50,5.0,10.0,17,0.00,,,0.08,meteohub,2013-05-05 22:28:00,
2013-05-05 17:33:00,60.4,48.9,29.89,ENE,61,8.0,10.0,17,0.00,,,0.08,meteohub,2013-05-05 22:33:00,
2013-05-05 17:38:00,59.9,48.9,29.89,NNE,20,3.0,9.0,22,0.00,,,0.08,meteohub,2013-05-05 22:38:00,
2013-05-05 17:43:00,59.5,49.1,29.89,ENE,59,4.0,9.0,25,0.00,,,0.08,meteohub,2013-05-05 22:43:00,
2013-05-05 17:48:00,59.4,49.1,29.89,North,353,3.0,9.0,25,0.00,,,0.08,meteohub,2013-05-05 22:48:00,
2013-05-05 17:54:00,59.4,49.1,29.89,NNE,18,5.0,6.0,28,0.00,,,0.08,meteohub,2013-05-05 22:54:00,
2013-05-05 17:59:00,59.4,49.1,29.89,NE,50,4.0,6.0,28,0.00,,,0.08,meteohub,2013-05-05 22:59:00,
2013-05-05 18:04:00,59.4,49.1,29.89,NE,46,3.0,8.0,28,0.00,,,0.08,meteohub,2013-05-05 23:04:00,
2013-05-05 18:09:00,59.4,49.1,29.89,ENE,60,4.0,8.0,28,0.00,,,0.08,meteohub,2013-05-05 23:09:00,
2013-05-05 18:14:00,59.4,49.1,29.89,NE,47,3.0,8.0,28,0.00,,,0.08,meteohub,2013-05-05 23:14:00,
2013-05-05 18:19:00,59.4,49.3,29.89,NE,45,6.0,6.0,28,0.00,,,0.08,meteohub,2013-05-05 23:19:00,
2013-05-05 18:24:00,59.2,49.8,29.89,NNE,26,5.0,6.0,30,0.00,,,0.08,meteohub,2013-05-05 23:24:00,
2013-05-05 18:29:00,58.8,50.0,29.89,ENE,61,6.0,9.0,33,0.00,,,0.08,meteohub,2013-05-05 23:29:00,
2013-05-05 18:34:00,58.5,50.0,29.89,NE,50,4.0,9.0,35,0.00,,,0.08,meteohub,2013-05-05 23:34:00,
2013-05-05 18:39:00,58.3,50.0,29.89,NE,42,4.0,9.0,36,0.00,,,0.08,meteohub,2013-05-05 23:39:00,
2013-05-05 18:44:00,58.1,50.2,29.89,NE,48,3.0,8.0,36,0.04,,,0.12,meteohub,2013-05-05 23:44:00,
2013-05-05 18:49:00,57.9,50.9,29.89,NE,48,3.0,6.0,37,0.04,,,0.12,meteohub,2013-05-05 23:49:00,
2013-05-05 18:54:00,57.9,51.4,29.89,NE,48,3.0,5.0,37,0.04,,,0.12,meteohub,2013-05-05 23:54:00,
2013-05-05 18:59:00,57.7,50.7,29.89,NE,43,0.0,4.0,38,0.04,,,0.12,meteohub,2013-05-05 23:59:00,
2013-05-05 19:04:00,57.6,50.5,29.89,NE,38,4.0,5.0,38,0.04,,,0.12,meteohub,2013-05-06 00:04:00,
2013-05-05 19:09:00,57.6,50.4,29.89,ENE,58,3.0,5.0,39,0.04,,,0.12,meteohub,2013-05-06 00:09:00,
2013-05-05 19:14:00,57.4,50.7,29.89,NE,39,4.0,6.0,39,0.04,,,0.12,meteohub,2013-05-06 00:14:00,
2013-05-05 19:20:00,57.2,50.5,29.89,NE,51,4.0,6.0,40,0.04,,,0.12,meteohub,2013-05-06 00:20:00,
2013-05-05 19:25:00,57.2,50.4,29.92,NE,50,2.0,5.0,40,0.04,,,0.12,meteohub,2013-05-06 00:25:00,
2013-05-05 19:30:00,57.2,50.2,29.92,North,357,4.0,8.0,40,0.04,,,0.12,meteohub,2013-05-06 00:30:00,
2013-05-05 19:35:00,57.2,50.2,29.92,NE,39,3.0,8.0,40,0.00,,,0.12,meteohub,2013-05-06 00:35:00,
2013-05-05 19:40:00,57.0,50.0,29.92,NNE,19,4.0,6.0,40,0.00,,,0.12,meteohub,2013-05-06 00:40:00,
2013-05-05 19:45:00,57.0,50.0,29.92,NE,39,3.0,5.0,40,0.00,,,0.12,meteohub,2013-05-06 00:45:00,
2013-05-05 19:50:00,57.0,50.0,29.92,NE,43,0.0,5.0,40,0.00,,,0.12,meteohub,2013-05-06 00:50:00,
2013-05-05 19:55:00,57.0,50.0,29.92,NE,47,3.0,5.0,40,0.00,,,0.12,meteohub,2013-05-06 00:55:00,
2013-05-05 20:00:00,57.0,50.0,29.92,NNE,18,3.0,4.0,40,0.00,,,0.12,meteohub,2013-05-06 01:00:00,
2013-05-05 20:05:00,56.8,49.8,29.92,NE,43,3.0,6.0,40,0.00,,,0.12,meteohub,2013-05-06 01:05:00,
2013-05-05 20:10:00,56.7,49.8,29.92,NE,37,4.0,6.0,40,0.00,,,0.12,meteohub,2013-05-06 01:10:00,
2013-05-05 20:15:00,56.5,49.8,29.92,NE,37,4.0,8.0,40,0.00,,,0.12,meteohub,2013-05-06 01:15:00,
2013-05-05 20:20:00,56.5,50.4,29.92,North,0,3.0,8.0,40,0.00,,,0.12,meteohub,2013-05-06 01:20:00,
2013-05-05 20:26:00,56.3,50.4,29.92,NE,55,4.0,8.0,40,0.00,,,0.12,meteohub,2013-05-06 01:26:00,
2013-05-05 20:31:00,56.3,50.4,29.92,ENE,61,2.0,7.0,40,0.00,,,0.12,meteohub,2013-05-06 01:31:00,
2013-05-05 20:36:00,56.3,50.4,29.92,NE,55,3.0,5.0,40,0.00,,,0.12,meteohub,2013-05-06 01:36:00,
2013-05-05 20:41:00,56.3,50.4,29.92,NE,40,3.0,6.0,40,0.00,,,0.12,meteohub,2013-05-06 01:41:00,
2013-05-05 20:46:00,56.3,49.6,29.92,NE,53,3.0,6.0,40,0.00,,,0.12,meteohub,2013-05-06 01:46:00,
2013-05-05 20:51:00,56.3,50.4,29.92,NE,53,0.0,6.0,40,0.00,,,0.12,meteohub,2013-05-06 01:51:00,
2013-05-05 20:56:00,56.3,50.4,29.92,NNE,32,0.0,5.0,40,0.00,,,0.12,meteohub,2013-05-06 01:56:00,
2013-05-05 21:01:00,56.3,50.4,29.92,NNE,32,2.0,4.0,40,0.00,,,0.12,meteohub,2013-05-06 02:01:00,
2013-05-05 21:06:00,56.3,50.4,29.92,NNE,32,0.0,4.0,40,0.00,,,0.12,meteohub,2013-05-06 02:06:00,
2013-05-05 21:11:00,56.3,50.9,29.92,NNE,32,0.0,4.0,40,0.00,,,0.12,meteohub,2013-05-06 02:11:00,
2013-05-05 21:16:00,56.3,50.2,29.92,NNE,32,0.0,3.0,40,0.00,,,0.12,meteohub,2013-05-06 02:16:00,
2013-05-05 21:21:00,56.3,50.2,29.92,NNE,24,2.0,4.0,40,0.00,,,0.12,meteohub,2013-05-06 02:21:00,
2013-05-05 21:26:00,56.3,50.2,29.92,NNE,24,0.0,4.0,40,0.00,,,0.12,meteohub,2013-05-06 02:26:00,
2013-05-05 21:31:00,56.3,50.0,29.92,NNE,24,4.0,4.0,40,0.00,,,0.12,meteohub,2013-05-06 02:31:00,
2013-05-05 21:36:00,56.5,50.0,29.92,NNE,24,0.0,4.0,40,0.00,,,0.12,meteohub,2013-05-06 02:36:00,
2013-05-05 21:42:00,56.5,50.0,29.95,NE,54,0.0,4.0,40,0.00,,,0.12,meteohub,2013-05-06 02:42:00,
2013-05-05 21:47:00,56.5,50.0,29.95,NE,35,3.0,5.0,40,0.00,,,0.12,meteohub,2013-05-06 02:47:00,
2013-05-05 21:52:00,56.5,50.0,29.95,NNE,21,3.0,5.0,41,0.00,,,0.12,meteohub,2013-05-06 02:52:00,
2013-05-05 21:57:00,56.5,50.0,29.95,NNE,12,4.0,5.0,41,0.00,,,0.12,meteohub,2013-05-06 02:57:00,
2013-05-05 22:02:00,56.5,49.8,29.95,NNE,12,0.0,5.0,41,0.00,,,0.12,meteohub,2013-05-06 03:02:00,
2013-05-05 22:07:00,56.5,49.8,29.95,NNE,12,0.0,4.0,41,0.00,,,0.12,meteohub,2013-05-06 03:07:00,
2013-05-05 22:12:00,56.5,50.4,29.95,ENE,57,3.0,4.0,41,0.00,,,0.12,meteohub,2013-05-06 03:12:00,
2013-05-05 22:17:00,56.5,49.8,29.95,NE,34,3.0,4.0,41,0.00,,,0.12,meteohub,2013-05-06 03:17:00,
2013-05-05 22:22:00,56.5,50.2,29.95,NW,319,3.0,6.0,40,0.00,,,0.12,meteohub,2013-05-06 03:22:00,
2013-05-05 22:27:00,56.5,50.2,29.95,North,357,0.0,6.0,40,0.00,,,0.12,meteohub,2013-05-06 03:27:00,
2013-05-05 22:32:00,56.5,50.2,29.95,North,357,0.0,5.0,40,0.00,,,0.12,meteohub,2013-05-06 03:32:00,
2013-05-05 22:37:00,56.5,50.2,29.95,North,357,2.0,5.0,40,0.00,,,0.12,meteohub,2013-05-06 03:37:00,
2013-05-05 22:42:00,56.5,50.2,29.95,North,0,4.0,4.0,40,0.00,,,0.12,meteohub,2013-05-06 03:42:00,
2013-05-05 22:47:00,56.5,50.2,29.95,NNE,18,0.0,4.0,40,0.00,,,0.12,meteohub,2013-05-06 03:47:00,
2013-05-05 22:52:00,56.5,50.2,29.95,North,8,0.0,4.0,40,0.00,,,0.12,meteohub,2013-05-06 03:52:00,
2013-05-05 22:57:00,56.5,50.2,29.95,North,8,0.0,5.0,40,0.00,,,0.12,meteohub,2013-05-06 03:57:00,
2013-05-05 23:01:00,56.5,50.2,29.95,NNE,14,3.0,5.0,40,0.00,,,0.12,meteohub,2013-05-06 04:01:00,
2013-05-05 23:02:00,56.5,50.2,29.95,NNE,14,2.0,5.0,40,0.00,,,0.12,meteohub,2013-05-06 04:02:00,
2013-05-05 23:03:00,56.5,50.2,29.95,NNE,14,0.0,5.0,40,0.00,,,0.12,meteohub,2013-05-06 04:03:00,
2013-05-05 23:05:00,56.5,50.2,29.95,NNE,14,0.0,5.0,40,0.00,,,0.12,meteohub,2013-05-06 04:05:00,
2013-05-05 23:10:00,56.5,50.2,29.92,NNE,14,0.0,5.0,40,0.00,,,0.12,meteohub,2013-05-06 04:10:00,
2013-05-05 23:15:00,56.5,50.2,29.92,North,0,0.0,5.0,40,0.00,,,0.12,meteohub,2013-05-06 04:15:00,
2013-05-05 23:20:00,56.7,50.2,29.92,NE,34,4.0,4.0,40,0.00,,,0.12,meteohub,2013-05-06 04:20:00,
2013-05-05 23:25:00,56.7,50.2,29.92,NE,34,0.0,4.0,40,0.00,,,0.12,meteohub,2013-05-06 04:25:00,
2013-05-05 23:30:00,56.7,50.2,29.92,NNE,29,0.0,5.0,40,0.00,,,0.12,meteohub,2013-05-06 04:30:00,
2013-05-05 23:35:00,56.7,50.2,29.92,North,353,4.0,5.0,40,0.00,,,0.12,meteohub,2013-05-06 04:35:00,
2013-05-05 23:40:00,56.7,50.2,29.92,NNE,18,3.0,5.0,40,0.00,,,0.12,meteohub,2013-05-06 04:40:00,
2013-05-05 23:45:00,56.7,50.2,29.92,North,353,2.0,5.0,40,0.00,,,0.12,meteohub,2013-05-06 04:45:00,
2013-05-05 23:50:00,56.7,50.2,29.92,North,353,0.0,5.0,40,0.00,,,0.12,meteohub,2013-05-06 04:50:00,
2013-05-05 23:56:00,56.7,50.0,29.92,NE,46,2.0,5.0,40,0.00,,,0.12,meteohub,2013-05-06 04:56:00,